{"data":{"norad_id":66881,"intl_designator":"2025-283D","name":"STARLINK-35860","alt_names":[],"object_type":"PAYLOAD","status":"ACTIVE","operator":null,"country":"US","launch_date":"2025-12-04","launch_site_code":"AFWTR","launch_vehicle":null,"mission":null,"orbit_class":"UNKNOWN","rcs_meters":null,"size_class":null,"mass_kg":null,"dimensions":null,"purposes":["comms"],"wikipedia_slug":null,"has_3d_model":false,"image_url":null,"decayed_at":null,"tle_current":{"epoch":"2026-05-24T22:43:03.404352Z","epoch_age_seconds":73651,"freshness":"FRESH","line1":"1 66881U 25283D   26144.94656718  .00022342  00000+0  76410-3 0  9995","line2":"2 66881  53.1612  29.6618 0001151  78.1852 281.9278 15.30204602 27526","mean_motion":15.30204602,"eccentricity":0.0001151,"inclination_deg":53.1612,"raan_deg":29.6618,"arg_perigee_deg":78.1852,"mean_anomaly_deg":281.9278,"bstar":0.0007641,"rev_number":2752,"period_min":94.105062690172,"perigee_km":474.41250946964,"apogee_km":475.99014795291,"semimajor_km":6853.3383287113,"source":"CELESTRAK","updated_at":"2026-05-25T13:38:21.378442Z"}}}